| time (UTC) | temp F | wind direction | speed MPH | gust MPH | rain 1hr in | rain 24hr in | rain mn in | humidity % | barometer mb |
| 20260510114627 | 61 | 359 | 2.0 | 4.0 | 0.00 | 0.00 | 0.00 | 24 | 1016.0 |
| 20260510113121 | 61 | 35 | 2.0 | 4.0 | 0.00 | 0.00 | 0.00 | 25 | 1015.9 |
| 20260510111654 | 61 | 7 | 2.0 | 7.0 | 0.00 | 0.00 | 0.00 | 25 | 1015.7 |
| 20260510110125 | 56 | 335 | 1.0 | 3.0 | 0.00 | 0.00 | 0.00 | 30 | 1015.3 |
| 20260510104640 | 56 | 41 | 2.0 | 3.0 | 0.00 | 0.00 | 0.00 | 30 | 1015.3 |
| 20260510103129 | 56 | 106 | 2.0 | 8.0 | 0.00 | 0.00 | 0.00 | 30 | 1014.7 |
| 20260510101623 | 57 | 230 | 0.0 | 2.0 | 0.00 | 0.00 | 0.00 | 28 | 1014.5 |
| 20260510100133 | 57 | 277 | 0.0 | 1.0 | 0.00 | 0.00 | 0.00 | 28 | 1014.3 |
| 20260510094623 | 58 | 293 | 0.0 | 1.0 | 0.00 | 0.00 | 0.00 | 27 | 1014.1 |
| 20260510093138 | 58 | 293 | 0.0 | 1.0 | 0.00 | 0.00 | 0.00 | 27 | 1013.9 |
| 20260510091629 | 58 | 316 | 0.0 | 4.0 | 0.00 | 0.00 | 0.00 | 27 | 1013.8 |
| 20260510090123 | 59 | 341 | 2.0 | 4.0 | 0.00 | 0.00 | 0.00 | 26 | 1013.5 |
| 20260510084633 | 59 | 80 | 1.0 | 3.0 | 0.00 | 0.00 | 0.00 | 26 | 1013.3 |
| 20260510083127 | 61 | 263 | 0.0 | 3.0 | 0.00 | 0.00 | 0.00 | 25 | 1013.2 |
| 20260510081657 | 63 | 256 | 0.0 | 1.0 | 0.00 | 0.00 | 0.00 | 22 | 1013.2 |
| 20260510080126 | 63 | 131 | 0.0 | 3.0 | 0.00 | 0.00 | 0.00 | 21 | 1013.1 |
| 20260510074621 | 62 | 124 | 0.0 | 0.0 | 0.00 | 0.00 | 0.00 | 22 | 1013.2 |
| 20260510073130 | 64 | 293 | 0.0 | 2.0 | 0.00 | 0.00 | 0.00 | 21 | 1013.7 |
| 20260510071624 | 66 | 73 | 3.0 | 5.0 | 0.00 | 0.00 | 0.00 | 19 | 1013.7 |
| 20260510070135 | 67 | 114 | 1.0 | 3.0 | 0.00 | 0.00 | 0.00 | 18 | 1013.4 |
| 20260510064624 | 69 | 250 | 1.0 | 2.0 | 0.00 | 0.00 | 0.00 | 17 | 1013.6 |
| 20260510063140 | 71 | 168 | 1.0 | 4.0 | 0.00 | 0.00 | 0.00 | 15 | 1013.3 |
| 20260510061630 | 71 | 159 | 2.0 | 4.0 | 0.00 | 0.00 | 0.00 | 15 | 1013.3 |
| 20260510060146 | 72 | 159 | 2.0 | 4.0 | 0.00 | 0.00 | 0.00 | 14 | 1013.3 |
| 20260510054635 | 74 | 135 | 4.0 | 7.0 | 0.00 | 0.00 | 0.00 | 13 | 1013.3 |
| 20260510053145 | 75 | 118 | 5.0 | 7.0 | 0.00 | 0.00 | 0.00 | 12 | 1013.3 |
| 20260510051623 | 75 | 130 | 3.0 | 6.0 | 0.00 | 0.00 | 0.00 | 11 | 1013.3 |
| 20260510050133 | 76 | 135 | 3.0 | 7.0 | 0.00 | 0.00 | 0.00 | 11 | 1013.3 |
| 20260510044626 | 76 | 126 | 4.0 | 6.0 | 0.00 | 0.00 | 0.00 | 12 | 1013.5 |
| 20260510043137 | 76 | 135 | 2.0 | 7.0 | 0.00 | 0.00 | 0.00 | 12 | 1013.4 |
| 20260510041631 | 75 | 144 | 4.0 | 6.0 | 0.00 | 0.00 | 0.00 | 13 | 1013.4 |
| 20260510040141 | 75 | 144 | 2.0 | 5.0 | 0.00 | 0.00 | 0.00 | 13 | 1013.3 |
| 20260510034629 | 75 | 132 | 2.0 | 6.0 | 0.00 | 0.00 | 0.00 | 12 | 1013.1 |
| 20260510031622 | 72 | 119 | 2.0 | 4.0 | 0.00 | 0.00 | 0.00 | 14 | 1012.9 |
| 20260510030155 | 75 | 135 | 1.0 | 4.0 | 0.00 | 0.00 | 0.00 | 13 | 1012.8 |
| 20260510024627 | 76 | 125 | 2.0 | 4.0 | 0.00 | 0.00 | 0.00 | 12 | 1012.7 |
| 20260510023137 | 77 | 104 | 4.0 | 5.0 | 0.00 | 0.00 | 0.00 | 12 | 1012.3 |
| 20260510021630 | 79 | 112 | 3.0 | 4.0 | 0.00 | 0.00 | 0.00 | 11 | 1012.3 |
| 20260510020140 | 81 | 128 | 2.0 | 4.0 | 0.00 | 0.00 | 0.00 | 11 | 1012.2 |
| 20260510014629 | 83 | 122 | 2.0 | 4.0 | 0.00 | 0.00 | 0.00 | 9 | 1012.2 |
| 20260510013123 | 84 | 149 | 2.0 | 4.0 | 0.00 | 0.00 | 0.00 | 9 | 1012.0 |
| 20260510011631 | 86 | 116 | 1.0 | 6.0 | 0.00 | 0.00 | 0.00 | 9 | 1012.0 |
| 20260510010125 | 88 | 144 | 2.0 | 5.0 | 0.00 | 0.00 | 0.00 | 9 | 1011.9 |
| 20260510004635 | 89 | 114 | 4.0 | 6.0 | 0.00 | 0.00 | 0.00 | 9 | 1012.0 |
| 20260510003128 | 89 | 109 | 3.0 | 6.0 | 0.00 | 0.00 | 0.00 | 9 | 1012.1 |
| 20260510001659 | 90 | 101 | 4.0 | 7.0 | 0.00 | 0.00 | 0.00 | 9 | 1012.1 |
| 20260510000125 | 91 | 162 | 1.0 | 7.0 | 0.00 | 0.00 | 0.00 | 9 | 1012.3 |
| 20260509234639 | 91 | 132 | 1.0 | 7.0 | 0.00 | 0.00 | 0.00 | 9 | 1012.3 |
| 20260509233127 | 91 | 229 | 3.0 | 8.0 | 0.00 | 0.00 | 0.00 | 9 | 1012.6 |
| 20260509231621 | 90 | 152 | 1.0 | 4.0 | 0.00 | 0.00 | 0.00 | 9 | 1012.7 |
| 20260509230152 | 91 | 236 | 4.0 | 6.0 | 0.00 | 0.00 | 0.00 | 9 | 1012.8 |
| 20260509224701 | 91 | 252 | 2.0 | 6.0 | 0.00 | 0.00 | 0.00 | 9 | 1012.8 |
| 20260509223135 | 91 | 232 | 3.0 | 11.0 | 0.00 | 0.00 | 0.00 | 9 | 1013.0 |
| 20260509221625 | 90 | 54 | 4.0 | 7.0 | 0.00 | 0.00 | 0.00 | 9 | 1013.3 |
| 20260509220137 | 91 | 197 | 2.0 | 6.0 | 0.00 | 0.00 | 0.00 | 9 | 1013.5 |
| 20260509214630 | 90 | 262 | 1.0 | 10.0 | 0.00 | 0.00 | 0.00 | 9 | 1013.8 |
| 20260509213200 | 90 | 190 | 3.0 | 13.0 | 0.00 | 0.00 | 0.00 | 9 | 1014.1 |
| 20260509211633 | 90 | 220 | 1.0 | 10.0 | 0.00 | 0.00 | 0.00 | 9 | 1014.3 |
| 20260509210122 | 90 | 213 | 2.0 | 5.0 | 0.00 | 0.00 | 0.00 | 9 | 1014.4 |
| 20260509204636 | 89 | 234 | 5.0 | 9.0 | 0.00 | 0.00 | 0.00 | 9 | 1014.8 |
| 20260509203125 | 89 | 240 | 7.0 | 11.0 | 0.00 | 0.00 | 0.00 | 9 | 1015.2 |
| 20260509201633 | 89 | 256 | 1.0 | 9.0 | 0.00 | 0.00 | 0.00 | 9 | 1015.3 |
| 20260509200126 | 87 | 291 | 2.0 | 9.0 | 0.00 | 0.00 | 0.00 | 9 | 1015.4 |
| 20260509194635 | 87 | 257 | 2.0 | 8.0 | 0.00 | 0.00 | 0.00 | 9 | 1015.6 |
| 20260509193145 | 87 | 220 | 4.0 | 7.0 | 0.00 | 0.00 | 0.00 | 10 | 1015.8 |
| 20260509191639 | 86 | 206 | 7.0 | 11.0 | 0.00 | 0.00 | 0.00 | 10 | 1016.1 |
| 20260509190130 | 87 | 243 | 3.0 | 9.0 | 0.00 | 0.00 | 0.00 | 12 | 1016.2 |
| 20260509184624 | 86 | 160 | 4.0 | 8.0 | 0.00 | 0.00 | 0.00 | 12 | 1016.5 |
| 20260509183134 | 85 | 134 | 1.0 | 5.0 | 0.00 | 0.00 | 0.00 | 13 | 1016.7 |
| 20260509181626 | 84 | 15 | 1.0 | 6.0 | 0.00 | 0.00 | 0.00 | 12 | 1017.0 |
| 20260509180137 | 82 | 218 | 3.0 | 8.0 | 0.00 | 0.00 | 0.00 | 13 | 1017.1 |
| 20260509174626 | 81 | 164 | 4.0 | 8.0 | 0.00 | 0.00 | 0.00 | 14 | 1017.3 |
| 20260509173139 | 81 | 252 | 2.0 | 6.0 | 0.00 | 0.00 | 0.00 | 14 | 1017.4 |
| 20260509171648 | 80 | 299 | 1.0 | 6.0 | 0.00 | 0.00 | 0.00 | 15 | 1017.4 |
| 20260509170138 | 80 | 233 | 0.0 | 4.0 | 0.00 | 0.00 | 0.00 | 15 | 1017.4 |
| 20260509164630 | 79 | 232 | 3.0 | 10.0 | 0.00 | 0.00 | 0.00 | 16 | 1017.4 |
| 20260509163122 | 77 | 93 | 3.0 | 4.0 | 0.00 | 0.00 | 0.00 | 17 | 1017.5 |
| 20260509161635 | 77 | 73 | 1.0 | 4.0 | 0.00 | 0.00 | 0.00 | 17 | 1017.5 |
| 20260509160146 | 75 | 284 | 1.0 | 6.0 | 0.00 | 0.00 | 0.00 | 19 | 1017.6 |
| 20260509154621 | 73 | 40 | 2.0 | 5.0 | 0.00 | 0.00 | 0.00 | 20 | 1017.5 |
| 20260509153134 | 72 | 60 | 3.0 | 5.0 | 0.00 | 0.00 | 0.00 | 20 | 1017.6 |
| 20260509151623 | 71 | 304 | 2.0 | 4.0 | 0.00 | 0.00 | 0.00 | 23 | 1017.6 |
| 20260509150140 | 68 | 289 | 3.0 | 5.0 | 0.00 | 0.00 | 0.00 | 23 | 1017.6 |
| 20260509144631 | 67 | 300 | 3.0 | 5.0 | 0.00 | 0.00 | 0.00 | 25 | 1017.7 |
| 20260509143126 | 66 | 312 | 2.0 | 7.0 | 0.00 | 0.00 | 0.00 | 27 | 1017.8 |
| 20260509141637 | 63 | 282 | 2.0 | 7.0 | 0.00 | 0.00 | 0.00 | 28 | 1017.8 |
| 20260509140131 | 60 | 296 | 4.0 | 7.0 | 0.00 | 0.00 | 0.00 | 28 | 1017.7 |
| 20260509134625 | 57 | 308 | 3.0 | 5.0 | 0.00 | 0.00 | 0.00 | 31 | 1017.5 |
| 20260509133136 | 55 | 286 | 2.0 | 4.0 | 0.00 | 0.00 | 0.00 | 34 | 1017.5 |
| 20260509131654 | 53 | 284 | 0.0 | 2.0 | 0.00 | 0.00 | 0.00 | 36 | 1017.2 |
| 20260509130126 | 49 | 293 | 1.0 | 1.0 | 0.00 | 0.00 | 0.00 | 40 | 1016.8 |
| 20260509124623 | 46 | 257 | 0.0 | 1.0 | 0.00 | 0.00 | 0.00 | 43 | 1016.7 |
| 20260509123136 | 46 | 90 | 0.0 | 1.0 | 0.00 | 0.00 | 0.00 | 43 | 1016.4 |
| 20260509121630 | 47 | 260 | 0.0 | 0.0 | 0.00 | 0.00 | 0.00 | 42 | 1015.9 |
| 20260509120125 | 49 | 113 | 1.0 | 1.0 | 0.00 | 0.00 | 0.00 | 37 | 1015.6 |